Flag Weather past 2 weeks in Mattersburg, Burgenland, Austria

Now
36 °F

Chilly.


Feels Like: 30 °F
Forecast: 30 / 38 °F
Wind: 8 mph from Southeast

Location: Eisenstadt

Current Time: Nov 27, 2014 at 5:42:20 PM

Latest Report: Nov 27, 2014 at 5:00 PM


Visibility: N/A

Pressure: 30.03 "Hg

Humidity: 75%

Dew point: 29 °F

Location of MattersburgLocation

Historic Weather in Mattersburg — Graph

°F

Mattersburg temperature yesterday

Maximum temperature yesterday: 41 °F (at 1:00 PM)
Minimum temperature yesterday: 34 °F (at 8:00 AM)
Average temperature yesterday: 39 °F

Past Weeks' High & Low Weather Summary

 TemperatureHumidityPressure
High58 °F (Nov 14, 1:00 PM)99% (Nov 16, 10:00 PM)30.40 "Hg (Nov 16, 10:00 PM)
Low34 °F (Nov 26, 8:00 AM)60% (Nov 19, 1:00 PM)29.68 "Hg (Nov 18, 2:00 PM)
Average45 °F86%30.07 "Hg
* Reported Nov 12 4:00 PM — Nov 27 4:00 PM, Mattersburg, Weather by CustomWeather, © 2014

Note: Actual official high and low records may vary slightly from our data, if they occured in-between our weather recording intervals... More about our weather records

Advertising

Mattersburg weather history for previous 24 hours

 ConditionsComfort  
Time TempWeatherWind HumidityBarometerVisibility
4:00 PM
Nov 27
37 °FOvercast.9 mph73%30.03 "Hg6 mi
3:00 PM37 °FChilly.8 mph74%30.03 "HgN/A
2:00 PM38 °FChilly.10 mph68%30.04 "HgN/A
1:00 PM37 °FOvercast.9 mph71%30.06 "Hg6 mi
12:00 PM37 °FChilly.9 mph72%30.07 "HgN/A
11:00 AM36 °FChilly.9 mph74%30.09 "HgN/A
10:00 AM36 °FChilly.8 mph74%30.10 "HgN/A
9:00 AM35 °FChilly.7 mph74%30.10 "HgN/A
8:00 AM35 °FChilly.7 mph75%30.10 "HgN/A
7:00 AM35 °FOvercast.7 mph78%30.09 "Hg5 mi
6:00 AM36 °FOvercast.7 mph79%30.09 "Hg6 mi
5:00 AM36 °FOvercast.7 mph82%30.10 "Hg6 mi
4:00 AM36 °FPassing clouds.7 mph84%30.10 "Hg6 mi
3:00 AM36 °FChilly.7 mph85%30.11 "HgN/A
2:00 AM37 °FChilly.7 mph85%30.12 "HgN/A
1:00 AM37 °FPassing clouds.6 mph86%30.14 "Hg6 mi
12:00 AM37 °FChilly.7 mph85%30.14 "HgN/A
11:00 PM
Nov 26
38 °FChilly.7 mph84%30.16 "HgN/A
10:00 PM38 °FOvercast.6 mph84%30.16 "Hg6 mi
9:00 PM39 °FChilly.7 mph84%30.17 "HgN/A
8:00 PM39 °FChilly.6 mph87%30.18 "HgN/A
7:00 PM39 °FOvercast.6 mph86%30.18 "Hg6 mi
6:00 PM39 °FChilly.5 mph85%30.19 "HgN/A
5:00 PM40 °FChilly.5 mph81%30.19 "HgN/A
Weather by CustomWeather, © 2014

See weather overviewHow to use our weather pages